Regional Weather Roundup
Issued by NWS Wilmington, NC

Home | Current Version | Previous Version | Text Only | Print | Product List | Glossary On
Versions: 1 2 3 4 5 6 7 8 9 10 11 12 13 14 15 16 17 18 19 20 21 22 23 24 25 26 27 28 29 30 31 32 33 34 35 36 37 38 39 40 41 42 43 44 45 46 47 48 49 50
000
ASUS42 KILM 231310
RWRILM
RWRILM
REGIONAL HOURLY WEATHER ROUNDUP
NATIONAL WEATHER SERVICE WILMINGTON NC
900 AM EDT TUE SEP 23 2014

NOTE: "FAIR" INDICATES FEW OR NO CLOUDS BELOW 12,000 FEET WITH NO
SIGNIFICANT WEATHER AND/OR OBSTRUCTIONS TO VISIBILITY.

...............WFO WILMINGTON COUNTY WARNING AREA...............

......COASTAL NC AND SC COUNTIES......

CITY           SKY/WX    TMP DP  RH WIND       PRES   REMARKS
WILMINGTON     LGT RAIN  66  62  87 N10       30.19R
SOUTHPORT      RAIN      67  63  86 NE9       30.16R
N MYRTLE BEACH LGT RAIN  67  64  90 NE9       30.17R
MYRTLE BEACH   LGT RAIN  66  63  88 N9        30.16R FOG

......INLAND NC AND SC COUNTIES.......

CITY           SKY/WX    TMP DP  RH WIND       PRES   REMARKS
LUMBERTON      LGT RAIN  62  58  86 N12       30.22R
ELIZABETHTOWN  CLOUDY    64  58  81 CALM      30.22R
WHITEVILLE     LGT RAIN  64  61  88 N3        30.20R
FLORENCE       LGT RAIN  64  61  90 NE13      30.18F
DARLINGTON     CLOUDY    64  57  77 NE12      30.21S

....................REST OF NORTH CAROLINA......................

.........EASTERN NC.........

CITY           SKY/WX    TMP DP  RH WIND       PRES   REMARKS
CAPE HATTERAS  CLOUDY    69  61  75 NE10G22   30.18S
JACKSONVILLE   CLOUDY    63  55  77 N7        30.21R
MOREHEAD CITY  CLOUDY    70  60  70 NE12      30.18R
KENANSVILLE    CLOUDY    61  54  77 N7        30.25R
NEW BERN       CLOUDY    66  58  75 NE10      30.22R
ELIZABETH CITY CLOUDY    62  54  74 N13       30.26R

.........CENTRAL NC.........

CITY           SKY/WX    TMP DP  RH WIND       PRES   REMARKS
RALEIGH DURHAM CLOUDY    58  45  62 NE7       30.32R
ROCKY MOUNT    CLOUDY    60  48  64 NE10      30.28R
ROANOKE RAPIDS NOT AVBL
FAYETTEVILLE   CLOUDY    61  53  75 N12       30.25R
HOFFMAN        CLOUDY    63  48  59 NE12      30.27R

.........WESTERN NC.........

CITY           SKY/WX    TMP DP  RH WIND       PRES   REMARKS
CHARLOTTE      CLOUDY    60  49  66 NE8G16    30.26R
GREENSBORO     CLOUDY    57  46  66 NE10      30.31R
HICKORY        NOT AVBL
BOONE          NOT AVBL
ASHEVILLE      NOT AVBL

.....................REST OF SOUTH CAROLINA.....................

.........EASTERN SC.........

CITY           SKY/WX    TMP DP  RH WIND       PRES   REMARKS
CHARLESTON     LGT RAIN  67  64  90 N9        30.13S
BEAUFORT MCAS  HVY RAIN  67  64  90 VRB6      30.13R
HILTON HEAD    NOT AVBL

.........CENTRAL SC.........

CITY           SKY/WX    TMP DP  RH WIND       PRES   REMARKS
COLUMBIA       CLOUDY    66  57  72 NE8       30.19R
ORANGEBURG     CLOUDY    63  59  87 NE10      30.17R
SUMTER SHAW    PTSUNNY   63  60  88 N9        30.18R

.........WESTERN SC.........

CITY           SKY/WX    TMP DP  RH WIND       PRES   REMARKS
GREENVILLE     NOT AVBL
ROCK HILL      CLOUDY    61  52  72 VRB5      30.26R
ANDERSON       PTSUNNY   62  51  67 NE7       30.22R
CLEMSON        NOT AVBL
GREENWOOD      CLOUDY    61  54  77 N7        30.23R


...................COASTAL AND OFFSHORE REPORTS..................

................LOCAL PIERS AND NC RESERVE................


STATION/POSITION TIME  SKY/WX   TEMP    WIND        PRES    VSBY
                                AIR SEA DIR/SP/G
                 (UTC)          (F)     (DEG/KT/KT) (MB)    (MI)
JOHNY MRCER PIER 1300            70 80   20/ 19/ 21 1021.3R
NC RESRV MASNBRO 1200            71      30/ 12     1020.0S
OCEAN CREST PIER 1300            67 78  360/  9/ 13 1020.0R
SPRINGMAID  PIER 1300            68 78   10/ 11/ 13 1021.1R


................COASTAL AND OFFSHORE BUOYS................


STATION/POSITION TIME  SKY/WX   TEMP    WIND        PRES    VSBY
                                AIR SEA DIR/SP/G
                 (UTC)          (F)     (DEG/KT/KT) (MB)    (MI)
DIMNDSHOAL 41025 1300            75      20/ 19/ 25 1020.9R
WVE H/P(F/S)=  6/ 7 WND WVE H/P(F/S)=  7/ 7

CAPE LOOKOUT     1200            73      40/ 21/ 27 1021.0R
ONSLOW BAY 41036 1300            75 82   50/ 23/ 27 1019.7R
WVE H/P(F/S)=  6/ 6 WND WVE H/P(F/S)=  7/ 6

5 WRITEBCH 41038 1200            71 79   70/ 21/ 25   N/A
MASONBORO  41110 1300               79                N/A
WVE H/P(F/S)=  6/ 6 WND WVE H/P(F/S)=  7/ 6

WILM HARBR 41108 1300               79                N/A
WVE H/P(F/S)=  5/ 6 WND WVE H/P(F/S)=  5/ 6

27WRITEBCH 41037 1200            72 80   60/ 23/ 27 1020.0R
FRYING PAN 41013 NOT AVBL
SUNST NRSH 41024 1200            69      50/ 16/ 17 1020.1R
CAPRS NRSH 41029 NOT AVBL
EDISTO     41004 1300            76 81   70/ 17/ 19 1018.9R
WVE H/P(F/S)=  4/ 5 WND WVE H/P(F/S)=  3/ 5 SWL H/P/D(F/S/D)=  2/10



..........OFFSHORE BUOYS BEYOND 100 NM OFFSHORE...........
.....IN A TRIANGLE---HAT TO BERMUDA TO BAHAMAS TO HAT.....


STATION/POSITION TIME  SKY/WX   TEMP    WIND        PRES    VSBY
                                AIR SEA DIR/SP/G
                 (UTC)          (F)     (DEG/KT/KT) (MB)    (MI)
150E HAT   41001 NOT AVBL
W BERMUDA  41048 1155            81 81  150/  4/  6 1020.2R
WVE H/P(F/S)=  4/ 7 WND WVE H/P(F/S)=  2/ 4 SWL H/P/D(F/S/D)=  3/130/ 7

ATLANTIC S 41049 1236            84 85   90/ 14/ 16 1019.5R
WVE H/P(F/S)=  6/ 8 WND WVE H/P(F/S)=  3/ 4 SWL H/P/D(F/S/D)=  5/120/ 8

E BAHAMAS  41046 1243            84 84  110/ 16/ 19 1016.3R
WVE H/P(F/S)=  6/ 7 WND WVE H/P(F/S)=  5/ 7 SWL H/P/D(F/S/D)=  3/100/ 8

NE BAHAMAS 41047 1249            83 83  120/ 14/ 16 1018.1R
WVE H/P(F/S)=  4/ 7 WND WVE H/P(F/S)=  3/ 4 SWL H/P/D(F/S/D)=  2/ 80/ 7

120E CANVRL41010 1300            80 84  140/ 12/ 14 1017.2F
WVE H/P(F/S)=  2/ 7 SWL H/P/D(F/S/D)=  2/ 80/ 7


END



USA.gov is the U.S. government's official web portal to all federal, state and local government web resources and services.